When you browse on this site, cookies collect data to enhance your experience and personalize the content and advertising you see.
Visit our Privacy Policy to learn more. By continuing to use the site, you agree to this use of cookies and data.
  • In Hungary
  • List of Countries
  • For 7 days
  • Water Temperature
  • Satellite Maps
  • Weather Map
  • News
  • Weather Widgets
  • user-avatar
    Login

    Hourly Weather Bethesda

    Today, 18 June, Tuesday

    Time Temperature Precipitation Wind Pressure Humidity
    00:00 +22°C° 0.7 mm 0 mps 752 mmHg 87%
    01:00 +22°C° 0.7 mm 0 mps 752 mmHg 88%
    02:00 +22°C° 0 mm 0 mps 751 mmHg 89%
    03:00 +21°C° 0 mm 0 mps 751 mmHg 90%
    04:00 +23°C° 0 mm 1 mps 751 mmHg 91%
    05:00 +24°C° 0 mm 1 mps 751 mmHg 89%
    06:00 +25°C° 0 mm 1 mps 751 mmHg 87%
    07:00 +25°C° 0 mm 1 mps 751 mmHg 85%
    08:00 +26°C° 0.1 mm 1 mps 751 mmHg 81%
    09:00 +27°C° 0.1 mm 1 mps 751 mmHg 77%
    10:00 +28°C° 0.1 mm 2 mps 751 mmHg 72%
    11:00 +29°C° 0 mm 2 mps 751 mmHg 65%
    12:00 +31°C° 0 mm 3 mps 751 mmHg 58%
    13:00 +33°C° 0 mm 3 mps 751 mmHg 51%
    14:00 +30°C° 1.4 mm 3 mps 750 mmHg 61%
    15:00 +27°C° 1.4 mm 3 mps 750 mmHg 70%
    16:00 +25°C° 1.4 mm 3 mps 750 mmHg 80%
    17:00 +24°C° 7.8 mm 2 mps 750 mmHg 84%
    18:00 +23°C° 7.8 mm 1 mps 750 mmHg 87%
    19:00 +23°C° 7.8 mm 1 mps 750 mmHg 91%
    20:00 +23°C° 1 mm 1 mps 750 mmHg 91%
    21:00 +22°C° 1 mm 1 mps 750 mmHg 91%
    22:00 +22°C° 1 mm 1 mps 750 mmHg 91%
    23:00 +22°C° 0.1 mm 1 mps 750 mmHg 91%

    Tomorrow, 19 June, Wednesday

    Time Temperature Precipitation Wind Pressure Humidity
    00:00 +22°C° 0.1 mm 1 mps 750 mmHg 91%
    01:00 +22°C° 0.1 mm 1 mps 749 mmHg 91%
    02:00 +22°C° 0 mm 1 mps 749 mmHg 92%
    03:00 +22°C° 0 mm 1 mps 749 mmHg 92%
    04:00 +22°C° 0 mm 1 mps 749 mmHg 92%
    05:00 +22°C° 0 mm 1 mps 749 mmHg 91%
    06:00 +23°C° 0 mm 1 mps 749 mmHg 90%
    07:00 +23°C° 0 mm 1 mps 749 mmHg 89%
    08:00 +24°C° 0 mm 1 mps 749 mmHg 86%
    09:00 +25°C° 0 mm 1 mps 748 mmHg 84%
    10:00 +25°C° 0 mm 1 mps 748 mmHg 81%
    11:00 +27°C° 0 mm 2 mps 748 mmHg 74%
    12:00 +29°C° 0 mm 2 mps 747 mmHg 67%
    13:00 +30°C° 0 mm 2 mps 747 mmHg 60%
    14:00 +30°C° 0.2 mm 3 mps 746 mmHg 61%
    15:00 +31°C° 0.2 mm 3 mps 746 mmHg 62%
    16:00 +32°C° 0.2 mm 4 mps 745 mmHg 63%
    17:00 +30°C° 0.5 mm 3 mps 745 mmHg 67%
    18:00 +28°C° 0.5 mm 3 mps 745 mmHg 71%
    19:00 +27°C° 0.5 mm 2 mps 745 mmHg 75%
    20:00 +26°C° 1.2 mm 2 mps 745 mmHg 80%
    21:00 +26°C° 1.2 mm 2 mps 745 mmHg 84%
    22:00 +25°C° 1.2 mm 2 mps 744 mmHg 88%
    23:00 +25°C° 1 mm 2 mps 744 mmHg 89%

    Day after tomorrow, 20 June, Thursday

    Time Temperature Precipitation Wind Pressure Humidity
    00:00 +24°C° 1 mm 2 mps 744 mmHg 90%
    01:00 +24°C° 1 mm 2 mps 744 mmHg 91%
    02:00 +24°C° 0 mm 1 mps 743 mmHg 92%
    03:00 +24°C° 0 mm 1 mps 743 mmHg 92%
    04:00 +24°C° 0 mm 1 mps 743 mmHg 93%
    05:00 +24°C° 0 mm 1 mps 743 mmHg 90%
    06:00 +25°C° 0 mm 1 mps 744 mmHg 87%
    07:00 +26°C° 0 mm 1 mps 744 mmHg 85%
    08:00 +27°C° 0.2 mm 1 mps 744 mmHg 77%
    09:00 +29°C° 0.2 mm 2 mps 743 mmHg 69%
    10:00 +31°C° 0.2 mm 2 mps 743 mmHg 61%
    11:00 +33°C° 0 mm 3 mps 743 mmHg 56%
    12:00 +34°C° 0 mm 3 mps 742 mmHg 52%
    13:00 +35°C° 0 mm 4 mps 742 mmHg 47%
    14:00 +35°C° 0 mm 4 mps 741 mmHg 47%
    15:00 +35°C° 0 mm 4 mps 741 mmHg 47%
    16:00 +35°C° 0 mm 3 mps 740 mmHg 47%
    17:00 +33°C° 0.5 mm 4 mps 741 mmHg 54%
    18:00 +30°C° 0.5 mm 4 mps 741 mmHg 61%
    19:00 +28°C° 0.5 mm 5 mps 741 mmHg 68%
    20:00 +27°C° 0.9 mm 4 mps 741 mmHg 71%
    21:00 +26°C° 0.9 mm 4 mps 740 mmHg 74%
    22:00 +25°C° 0.9 mm 4 mps 740 mmHg 77%
    23:00 +25°C° 0.1 mm 4 mps 740 mmHg 77%

    21 June, Friday

    Time Temperature Precipitation Wind Pressure Humidity
    00:00 +23°C° 0.1 mm 4 mps 740 mmHg 77%
    01:00 +22°C° 0.1 mm 4 mps 739 mmHg 77%
    02:00 +22°C° 0 mm 4 mps 739 mmHg 75%
    03:00 +22°C° 0 mm 4 mps 739 mmHg 73%
    04:00 +22°C° 0 mm 3 mps 739 mmHg 71%
    05:00 +21°C° 0.1 mm 4 mps 740 mmHg 75%
    06:00 +21°C° 0.1 mm 5 mps 741 mmHg 78%
    07:00 +21°C° 0.1 mm 6 mps 742 mmHg 81%
    08:00 +21°C° 0 mm 7 mps 743 mmHg 78%
    09:00 +21°C° 0 mm 7 mps 744 mmHg 74%
    10:00 +22°C° 0 mm 8 mps 745 mmHg 71%
    11:00 +23°C° 0 mm 8 mps 746 mmHg 63%
    12:00 +26°C° 0 mm 7 mps 747 mmHg 55%
    13:00 +28°C° 0 mm 7 mps 747 mmHg 47%
    14:00 +28°C° 0 mm 6 mps 748 mmHg 46%
    15:00 +29°C° 0 mm 6 mps 748 mmHg 45%
    16:00 +29°C° 0 mm 5 mps 749 mmHg 44%
    17:00 +28°C° 0 mm 5 mps 749 mmHg 46%
    18:00 +26°C° 0 mm 5 mps 750 mmHg 48%
    19:00 +25°C° 0 mm 5 mps 750 mmHg 50%
    20:00 +23°C° 0 mm 4 mps 751 mmHg 51%
    21:00 +22°C° 0 mm 4 mps 752 mmHg 52%
    22:00 +21°C° 0 mm 3 mps 752 mmHg 53%
    23:00 +20°C° 0 mm 3 mps 753 mmHg 54%

    22 June, Saturday

    Time Temperature Precipitation Wind Pressure Humidity
    00:00 +19°C° 0 mm 3 mps 753 mmHg 56%
    01:00 +18°C° 0 mm 2 mps 753 mmHg 57%
    02:00 +18°C° 0 mm 2 mps 753 mmHg 58%
    03:00 +17°C° 0 mm 2 mps 753 mmHg 59%
    04:00 +17°C° 0 mm 2 mps 753 mmHg 60%
    05:00 +17°C° 0 mm 2 mps 754 mmHg 60%
    06:00 +18°C° 0 mm 2 mps 754 mmHg 60%
    07:00 +19°C° 0 mm 3 mps 754 mmHg 60%
    08:00 +21°C° 0 mm 3 mps 754 mmHg 55%
    09:00 +22°C° 0 mm 3 mps 754 mmHg 49%
    10:00 +25°C° 0 mm 3 mps 754 mmHg 43%
    11:00 +26°C° 0 mm 3 mps 754 mmHg 41%
    12:00 +27°C° 0 mm 3 mps 754 mmHg 40%
    13:00 +27°C° 0 mm 3 mps 753 mmHg 38%
    14:00 +28°C° 0 mm 3 mps 753 mmHg 39%
    15:00 +28°C° 0 mm 2 mps 753 mmHg 40%
    16:00 +28°C° 0 mm 2 mps 752 mmHg 41%
    17:00 +26°C° 0 mm 2 mps 752 mmHg 45%
    18:00 +25°C° 0 mm 1 mps 752 mmHg 49%
    19:00 +24°C° 0 mm 1 mps 753 mmHg 54%
    20:00 +23°C° 0 mm 1 mps 753 mmHg 55%
    21:00 +22°C° 0 mm 1 mps 753 mmHg 57%
    22:00 +21°C° 0 mm 1 mps 753 mmHg 58%
    23:00 +21°C° 0 mm 1 mps 753 mmHg 60%

    23 June, Sunday

    Time Temperature Precipitation Wind Pressure Humidity
    00:00 +20°C° 0 mm 1 mps 754 mmHg 61%
    01:00 +20°C° 0 mm 1 mps 754 mmHg 63%
    02:00 +19°C° 0 mm 1 mps 754 mmHg 66%
    03:00 +19°C° 0 mm 1 mps 754 mmHg 68%
    04:00 +18°C° 0 mm 1 mps 754 mmHg 70%
    05:00 +19°C° 0 mm 1 mps 754 mmHg 67%
    06:00 +21°C° 0 mm 1 mps 754 mmHg 64%
    07:00 +22°C° 0 mm 1 mps 754 mmHg 61%
    08:00 +24°C° 0 mm 1 mps 754 mmHg 55%
    09:00 +24°C° 0 mm 0 mps 754 mmHg 49%
    10:00 +27°C° 0 mm 0 mps 754 mmHg 42%
    11:00 +30°C° 0 mm 1 mps 754 mmHg 40%
    12:00 +31°C° 0 mm 1 mps 753 mmHg 38%
    13:00 +31°C° 0 mm 1 mps 753 mmHg 35%
    14:00 +31°C° 0 mm 1 mps 752 mmHg 37%
    15:00 +31°C° 0 mm 1 mps 752 mmHg 39%
    16:00 +31°C° 0 mm 2 mps 751 mmHg 41%
    17:00 +30°C° 0 mm 2 mps 751 mmHg 46%
    18:00 +29°C° 0 mm 2 mps 751 mmHg 52%
    19:00 +27°C° 0 mm 2 mps 751 mmHg 57%
    20:00 +26°C° 0 mm 2 mps 751 mmHg 57%
    21:00 +25°C° 0 mm 2 mps 751 mmHg 58%
    22:00 +24°C° 0 mm 3 mps 751 mmHg 58%
    23:00 +24°C° 0 mm 3 mps 751 mmHg 64%
    Show more